{"data":{"norad_id":66187,"epoch":"2026-05-24T16:11:17.439360Z","epoch_age_seconds":103499,"freshness":"FRESH","line1":"1 66187U 25243L   26144.67450740  .00008879  00000+0  31150-3 0  9998","line2":"2 66187  53.1564 252.5817 0000931 107.6517 252.4585 15.30202850 32286","mean_motion":15.3020285,"eccentricity":9.31e-5,"inclination_deg":53.1564,"raan_deg":252.5817,"arg_perigee_deg":107.6517,"mean_anomaly_deg":252.4585,"bstar":0.0003115,"rev_number":3228,"period_min":94.10517043541,"perigee_km":474.56851356083,"apogee_km":475.84460613167,"semimajor_km":6853.3435598462,"source":"CELESTRAK","updated_at":"2026-05-25T13:38:21.077528Z"}}